Tracking 19170 objects as of 23-May-2018
HD Live streaming from Space Station
objects crossing your sky now

NOAA 16 DEB

Track NOAA 16 DEB now!
10-day predictions


NORAD ID: 41299
Int'l Code: 2000-055HB
Perigee: 833.4 km
Apogee: 913.1 km
Inclination: 98.9 °
Period: 102.3 minutes
Semi major axis: 7244 km
RCS: Unknown
Launch date: September 21, 2000
Source: United States (US)
Launch site: AIR FORCE WESTERN TEST RANGE (AFWTR)

Note: This is SATELLITE DEBRIS
aabbcc
Your satellite tracking list
Your tracking list is empty




NASA's NSSDC Master Catalog

Two Line Element Set (TLE):
1 41299U 00055HB  18142.43143905  .00000469  00000-0  29718-3 0  9999
2 41299  98.8781 211.4934 0055055 180.3510 179.7630 14.08030669123297
Source of the keplerian elements: AFSPC